Regional Weather Roundup
Issued by NWS

Home | Current Version | Previous Version | Graphics & Text | Print | Product List | Glossary On
Versions: 1 2 3 4 5 6 7 8 9 10 11 12 13 14 15 16 17 18 19 20 21 22 23 24 25 26 27 28 29 30 31 32 33 34 35 36 37 38 39 40 41 42 43 44 45 46 47 48 49 50
675
ASUS43 KLMK 200710
RWRKY
KENTUCKY REGIONAL WEATHER ROUNDUP
NATIONAL WEATHER SERVICE LOUISVILLE KY
300 AM EDT FRI OCT 20 2017

NOTE "FAIR" INDICATES FEW OR NO CLOUDS BELOW 12,000 FEET
WITH NO SIGNIFICANT WEATHER AND/OR OBSTRUCTIONS TO VISIBILITY.

KYZ001>023-026-027-061>063-070>075-200800-
WESTERN AND SOUTH CENTRAL KENTUCKY

CITY           SKY/WX    TMP DP  RH WIND       PRES   REMARKS
PADUCAH        FAIR      50  46  86 CALM      30.21S
HENDERSON      FAIR      48  47  96 CALM      30.23S
OWENSBORO      FAIR      52  50  93 CALM      30.24R
HOPKINSVILLE   FAIR      51  49  93 E3        30.24R
BOWLING GREEN  FOG       48  48 100 CALM      30.26R VSB 3/4
GLASGOW        FAIR      46  46 100 CALM      30.26S FOG
$$

KYZ024-025-028>034-038-045-046-053-200800-
NORTH CENTRAL KENTUCKY

CITY           SKY/WX    TMP DP  RH WIND       PRES   REMARKS
LOUISVILLE/SDF FAIR      55  51  86 SE3       30.24S
LOUISVILLE/LOU FAIR      51  50  96 CALM      30.25S
FORT KNOX      FAIR      48  48 100 CALM      30.24R FOG
$$

KYZ035>037-039>044-047>052-055>060-089>105-200800-
NORTHEAST KENTUCKY

CITY           SKY/WX    TMP DP  RH WIND       PRES   REMARKS
LEXINGTON      FAIR      49  45  86 S5        30.26S
COVINGTON      FAIR      51  50  96 CALM      30.24R
FRANKFORT      FAIR      48  43  82 CALM      30.25S
$$

KYZ054-064>069-076>088-106>120-200800-
SOUTHEAST KENTUCKY

CITY           SKY/WX    TMP DP  RH WIND       PRES   REMARKS
JACKSON        FAIR      52  47  83 CALM      30.28S
LONDON         FAIR      46  44  93 CALM      30.28S
SOMERSET       FAIR      45  45 100 CALM      30.29S FOG
MIDDLESBORO    FAIR      44  44 100 CALM      30.32R
MONTICELLO     FAIR      43  41  93 CALM      30.30S FOG
$$





USA.gov is the U.S. government's official web portal to all federal, state and local government web resources and services.